DateTimeUTC,F1_A11,F1_S11,BsB_S11,BsG_S11,BsR_S11,BbsB_S11,BbsG_S11,BbsR_S11,BaB_A11,BaG_A11,BaR_A11,Tu_S11,T_S11,Uu_S11,U_S11,P_S11,T1_A11
2021-12-07T00:00:00Z,00000200,21000000,,,,,,,-000.27,-000.24,-000.21,19.9,26.8,,00.0,0635.6,31.2
2021-12-07T00:01:00Z,00000200,21000000,,,,,,,0000.28,0000.03,-000.07,19.9,26.8,,00.0,0635.6,31.2
2021-12-07T00:02:00Z,00000200,21000000,,,,,,,-000.11,0000.37,0000.43,19.9,26.8,,00.0,0635.6,31.1
2021-12-07T00:03:00Z,00000200,61000000,,,,,,,0000.32,-000.03,0000.43,19.9,26.8,,00.0,0635.6,31.1
2021-12-07T00:04:00Z,00000200,41000000,0000.69,0000.17,0000.35,0000.06,0000.20,0000.10,-000.26,-000.07,-000.76,20.0,26.7,,00.0,0636.4,31.1
2021-12-07T00:05:00Z,00000200,01000000,0000.30,-000.39,-000.07,0000.17,-000.00,0000.32,-000.15,-000.25,0000.21,20.0,26.6,,00.0,0636.4,31.1
2021-12-07T00:06:00Z,00000200,01000000,0000.03,-000.31,-000.28,-000.43,-000.15,-000.28,-000.07,-000.00,-000.35,19.9,26.5,,00.0,0636.5,31.1
2021-12-07T00:07:00Z,00000200,01000000,0000.92,0000.36,0000.24,-000.48,-000.09,0000.41,0000.10,-000.31,-000.24,19.9,26.5,,00.0,0636.5,31.1
2021-12-07T00:08:00Z,00000200,01000000,0000.49,-000.22,0000.30,0000.13,-000.06,0000.18,-000.14,0000.22,-000.05,19.9,26.5,,00.0,0636.5,31.1
2021-12-07T00:09:00Z,00000200,01000000,0000.66,-000.28,-000.08,-000.30,0000.36,-000.00,0000.09,-000.20,0000.53,20.0,26.5,,00.0,0636.5,31.1
2021-12-07T00:10:00Z,00000200,01000000,0000.52,0000.05,0000.13,-000.10,-000.11,-000.07,-000.02,-000.01,-000.54,20.0,26.5,,00.0,0636.5,31.1
2021-12-07T00:11:00Z,00000200,01000000,-000.24,0000.01,-000.37,-000.25,0000.14,-000.15,-000.09,0000.13,0000.57,20.0,26.5,,00.0,0636.5,31.1
2021-12-07T00:12:00Z,00000200,01000000,0000.08,0000.23,-000.29,-000.70,-000.04,-000.39,0000.04,0000.04,-000.02,20.1,26.6,,00.0,0636.5,31.1
2021-12-07T00:13:00Z,00000200,01000000,0000.79,-000.06,0000.11,-000.44,0000.06,-000.15,0000.35,0000.41,0000.01,20.1,26.6,,00.0,0636.5,31.1
2021-12-07T00:14:00Z,00000200,01000000,0001.23,0000.08,0000.11,-000.55,0000.13,-000.20,-000.30,-000.23,-000.09,20.2,26.6,,00.0,0636.5,31.1
2021-12-07T00:15:00Z,00000200,01000000,0000.39,-000.11,0000.04,0000.13,0000.20,0000.22,0000.27,0000.30,0000.11,20.2,26.6,,00.0,0636.5,31.1
2021-12-07T00:16:00Z,00000200,01000000,-000.11,0000.15,-000.16,0000.08,-000.19,0000.19,-000.25,-000.48,-000.27,20.3,26.6,,00.0,0636.6,31.1
2021-12-07T00:17:00Z,00000200,01000000,0000.05,-000.18,0000.34,-000.76,-000.18,0000.12,0000.18,0000.30,0000.19,20.3,26.6,,00.0,0636.6,31.1
2021-12-07T00:18:00Z,00000200,01000000,-000.40,-000.03,-000.04,-000.30,-000.05,0000.07,-000.01,0000.01,0000.06,20.2,26.6,,00.0,0636.5,31.1
2021-12-07T00:19:00Z,00000200,01000000,0000.08,-000.08,-000.09,0000.14,-000.19,0000.06,0000.42,0000.21,0000.06,20.2,26.6,,00.0,0636.5,31.1
2021-12-07T00:20:00Z,00000200,01000000,0000.74,-000.04,-000.41,0000.37,0000.02,-000.26,0000.09,0000.25,0000.27,20.1,26.6,,00.0,0636.5,31.1
2021-12-07T00:21:00Z,00000200,01000000,-000.10,-000.21,0000.01,-000.26,0000.12,-000.08,-000.56,-000.69,-000.14,20.0,26.6,,00.0,0636.6,31.1
2021-12-07T00:22:00Z,00000200,01000000,-000.11,0000.23,0000.16,-000.23,-000.08,0000.17,0000.33,0000.43,-000.15,20.0,26.5,,00.0,0636.6,31.1
2021-12-07T00:23:00Z,00000200,01000000,0001.13,0000.07,0000.23,0000.06,-000.07,0000.01,-000.11,0000.14,0000.58,20.0,26.5,,00.0,0636.6,31.1
2021-12-07T00:24:00Z,00000200,01000000,-000.16,-000.02,-000.10,0000.06,0000.00,0000.00,0000.11,-000.04,-000.12,20.1,26.5,,00.0,0636.6,31.1
2021-12-07T00:25:00Z,00000200,01000000,-000.12,-000.34,-000.36,-000.62,0000.03,0000.07,-000.13,-000.09,-000.46,20.1,26.6,,00.0,0636.6,31.1
2021-12-07T00:26:00Z,00000200,01000000,-000.54,-000.09,0000.06,0000.05,-000.01,0000.27,0000.07,0000.17,0000.13,20.2,26.6,,00.0,0636.6,31.1
2021-12-07T00:27:00Z,00000200,01000000,-000.28,-000.37,-000.09,-000.29,-000.07,0000.15,0000.17,0000.22,0000.24,20.2,26.6,,00.0,0636.6,31.1
2021-12-07T00:28:00Z,00000200,01000000,0000.72,-000.15,-000.28,0000.58,0000.07,0000.02,0000.03,0000.07,0000.06,20.3,26.6,,00.0,0636.6,31.1
2021-12-07T00:29:00Z,00000200,01000000,0000.74,0000.26,0000.30,-000.47,0000.17,0000.13,0000.08,-000.06,0000.22,20.3,26.7,,00.0,0636.6,31.1
2021-12-07T00:30:00Z,00000200,01000000,0000.21,-000.14,-000.06,-000.14,0000.08,0000.10,0000.18,0000.13,-000.18,20.3,26.7,,00.0,0636.7,31.1
2021-12-07T00:31:00Z,00000200,01000000,0000.79,-000.18,-000.07,-000.69,0000.13,0000.40,-000.16,-000.19,0000.11,20.3,26.7,,00.0,0636.6,31.1
2021-12-07T00:32:00Z,00000200,01000000,0000.87,-000.22,-000.17,-000.26,0000.07,0000.42,0000.36,0000.16,-000.24,20.3,26.7,,00.0,0636.6,31.1
2021-12-07T00:33:00Z,00000200,01000000,0000.66,-000.39,0000.02,-000.10,0000.21,-000.13,-000.24,0000.10,-000.01,20.2,26.6,,00.0,0636.6,31.1
2021-12-07T00:34:00Z,00000200,01000000,-000.11,0000.07,0000.20,-000.63,0000.30,-000.16,0000.04,-000.08,0000.27,20.1,26.6,,00.0,0636.6,31.1
2021-12-07T00:35:00Z,00000200,01000000,0000.14,0000.01,-000.02,-000.66,0000.08,0000.00,0000.02,-000.12,-000.12,20.0,26.6,,00.0,0636.6,31.1
2021-12-07T00:36:00Z,00000200,01000000,0000.36,-000.20,0000.18,-000.02,-000.20,0000.25,-000.32,-000.41,0000.11,20.0,26.5,,00.0,0636.6,31.1
2021-12-07T00:37:00Z,00000200,01000000,0000.61,0000.38,0000.28,0000.12,0000.19,-000.02,0000.14,0000.17,-000.13,20.0,26.5,,00.0,0636.6,31.1
2021-12-07T00:38:00Z,00000200,01000000,0000.42,-000.32,-000.01,0000.21,-000.27,-000.14,-000.22,0000.47,0000.03,20.0,26.5,,00.0,0636.6,31.1
2021-12-07T00:39:00Z,00000200,01000000,0000.68,-000.18,0000.04,-000.25,0000.07,0000.07,0000.40,-000.43,-000.16,20.1,26.5,,00.0,0636.7,31.1
2021-12-07T00:40:00Z,00000200,01000000,-000.07,0000.07,-000.20,-000.71,0000.15,0000.03,-000.14,0000.29,0000.02,20.1,26.5,,00.0,0636.6,31.1
2021-12-07T00:41:00Z,00000200,01000000,0000.18,-000.20,-000.18,-000.69,0000.05,-000.22,-000.04,-000.44,-000.09,20.1,26.6,,00.0,0636.6,31.1
2021-12-07T00:42:00Z,00000200,01000000,-000.29,-000.09,-000.07,-000.10,0000.27,0000.17,-000.12,0000.48,0000.06,20.1,26.6,,00.0,0636.6,31.1
2021-12-07T00:43:00Z,00000200,01000000,0000.24,-000.25,0000.34,0000.17,0000.07,-000.08,0000.13,-000.39,0000.10,20.0,26.6,,00.0,0636.7,31.1
2021-12-07T00:44:00Z,00000200,01000000,0000.24,-000.27,0000.02,0000.08,0000.04,-000.29,-000.42,0000.20,-000.11,20.0,26.5,,00.0,0636.6,31.1
2021-12-07T00:45:00Z,00000200,01000000,-000.16,0000.09,0000.08,-000.41,-000.24,-000.02,0000.10,-000.14,0000.17,19.9,26.5,,00.0,0636.7,31.1
2021-12-07T00:46:00Z,00000200,01000000,-000.20,0000.17,0000.12,-000.07,0000.24,0000.08,0000.47,-000.10,-000.26,19.8,26.4,,00.0,0636.6,31.0
2021-12-07T00:47:00Z,00000200,01000000,0000.58,0000.24,0000.08,-000.27,0000.18,-000.07,-000.03,0000.00,0000.06,19.8,26.4,,00.0,0636.6,31.0
2021-12-07T00:48:00Z,00000200,01000000,0001.17,-000.33,0000.08,-000.08,-000.11,0000.05,-000.18,-000.05,-000.16,19.7,26.4,,00.0,0636.6,31.0
2021-12-07T00:49:00Z,00000200,01000000,0000.38,-000.11,-000.19,-000.47,-000.23,0000.46,0000.02,-000.27,0000.11,19.6,26.3,,00.0,0636.5,31.1
2021-12-07T00:50:00Z,00000200,01000000,0000.83,0000.13,0000.00,-000.53,-000.05,0000.03,-000.09,0000.42,0000.05,19.5,26.3,,00.0,0636.5,31.0
2021-12-07T00:51:00Z,00000200,01000000,0000.13,-000.19,0000.31,0000.19,-000.03,0000.43,-000.13,-000.18,-000.46,19.5,26.2,,00.0,0636.5,31.0
2021-12-07T00:52:00Z,00000200,01000000,0000.31,0000.06,0000.14,0000.01,-000.08,0000.02,0000.14,-000.23,0000.23,19.5,26.2,,00.0,0636.5,31.0
2021-12-07T00:53:00Z,00000200,01000000,0000.23,-000.10,0000.19,-000.98,0000.24,0000.10,-000.13,0000.59,0000.27,19.5,26.2,,00.0,0636.5,31.0
2021-12-07T00:54:00Z,00000200,01000000,0000.63,-000.16,0000.18,0000.17,-000.04,0000.23,0000.13,-000.07,-000.20,19.6,26.2,,00.0,0636.5,31.1
2021-12-07T00:55:00Z,00000200,01000000,0000.29,-000.16,-000.14,-000.07,0000.31,-000.01,0000.12,-000.10,0000.06,19.6,26.2,,00.0,0636.5,31.1
2021-12-07T00:56:00Z,00000200,01000000,0000.39,-000.38,-000.23,-000.64,0000.25,-000.36,0000.31,0000.07,-000.08,19.7,26.2,,00.0,0636.6,31.1
2021-12-07T00:57:00Z,00000200,41000000,,,,,,,0000.08,0000.50,0000.77,19.8,26.3,,00.0,0636.5,31.1
2021-12-07T00:58:00Z,00000200,61000000,,,,,,,-000.19,-000.52,-000.08,19.5,26.4,,00.0,0635.7,31.1
2021-12-07T00:59:00Z,00000200,21000000,,,,,,,-000.01,0000.09,-000.30,19.5,26.5,,00.0,0635.7,31.1
